Temp
12 16 15 14 15 15 14 15 17 15 15 15 15 14 15 15 15 15 15 15 15 15 15 15 14 14 14 14 13 13 13 13 13 13 13 13 13 13 13 13 13 13 13
10 14 16 15 14 14 14 16 15 14 14 14 14 14 14 15 15 15 15 14 14 14 15 15 14 14 14 13 13 13 13 12 12 13 14 13 13 13 13 13 13 13 13
10 12 15 16 14 14 14 15 14 14 14 15 15 15 14 13 14 14 14 14 14 14 14 14 14 13 13 13 13 13 12 12 13 13 12 12 12 12 12 13 13 13 13
11 11 15 15 14 14 14 13 14 14 13 14 15 15 15 14 14 15 15 14 14 14 14 13 12 12 12 11 12 12 12 13 13 12 12 11 12 11 11 12 11 11 11
11 12 13 14 14 13 13 13 13 14 13 13 14 16 16 16 15 15 14 15 14 14 13 14 13 13 13 13 11 12 12 12 12 12 12 11 11 11 10 11 10 10 10
11 12 13 14 14 14 13 13 13 13 13 12 13 14 14 13 14 14 15 15 14 14 14 14 12 13 13 13 12 12 12 12 11 11 11 11 10 10 10 10 10 10 10
11 13 14 14 15 15 14 13 13 12 12 13 13 12 12 12 13 14 15 15 14 14 14 14 13 13 13 13 12 12 12 12 11 11 11 10 10 10 10 9 9 9 10
12 12 13 14 14 14 14 14 13 13 13 12 12 12 12 12 12 12 14 13 13 13 13 13 13 12 13 12 12 12 11 11 11 11 11 11 10 10 9 9 9 9 9
12 13 14 14 15 15 15 15 15 14 14 13 13 12 12 12 12 13 13 13 14 14 13 13 13 12 12 12 12 12 12 11 11 11 11 11 10 10 10 9 9 8 9
12 12 14 14 14 14 14 15 15 15 14 14 13 13 13 13 14 14 14 14 14 13 13 12 12 12 12 12 11 11 11 11 10 10 11 11 11 10 10 10 10 9 7
10 12 13 14 14 14 14 15 15 15 15 14 14 14 14 14 14 14 13 13 13 12 12 12 12 12 12 12 12 11 11 11 11 11 11 10 10 10 10 10 9 9 7
10 12 13 14 14 14 14 15 15 15 15 15 14 14 14 14 14 13 12 12 12 12 12 12 12 12 12 12 12 12 12 11 10 10 10 10 10 9 9 9 9 8 6
10 11 12 13 14 15 14 14 15 15 15 14 14 14 14 13 13 12 12 12 12 12 12 12 12 12 12 12 11 11 11 10 10 10 10 10 9 9 8 8 8 7 5
9 10 10 12 13 14 14 14 14 14 14 14 14 14 13 13 12 12 12 11 11 12 11 11 11 11 11 11 11 10 10 9 9 9 9 9 8 8 8 8 7 6 5
8 9 9 10 11 12 12 12 13 13 13 13 13 13 13 12 12 11 11 11 11 11 10 11 11 11 10 10 10 9 8 8 8 8 8 8 8 7 7 7 6 5 5
8 8 8 9 9 10 11 11 12 12 11 12 12 12 12 12 11 11 11 10 10 10 10 10 9 9 9 9 9 8 8 8 7 7 7 7 6 6 6 6 5 3 2
8 8 8 8 8 8 9 10 10 11 11 11 10 10 10 10 10 10 10 9 9 9 9 8 8 9 9 8 8 8 7 7 6 7 6 6 5 5 5 4 2 1 1
8 8 8 8 8 8 8 9 9 9 9 10 10 10 10 10 9 9 8 8 8 8 7 8 8 8 7 7 7 7 6 6 6 6 6 5 5 4 4 3 1 0 -0
6 8 9 9 8 8 8 8 8 8 8 8 8 8 8 8 8 8 8 7 7 7 7 7 7 7 7 6 6 6 6 6 5 5 5 4 4 3 3 1 1 1 0
6 7 8 9 8 8 8 7 7 7 7 7 7 7 7 7 7 7 7 7 6 6 6 6 6 6 6 6 6 6 5 4 4 3 3 2 2 -1 -1 -1 0 -0 -0
6 6 7 8 8 8 7 7 6 6 6 6 6 6 6 6 6 6 6 6 6 6 6 6 6 6 6 6 5 5 4 3 2 1 0 -0 -0 -1 -1 -0 -0 -1 -0
5 6 6 6 7 7 7 7 6 6 6 6 7 6 6 6 6 6 6 6 5 5 6 6 6 5 6 6 5 5 4 3 2 1 -0 -1 -1 -1 -1 -1 -1 -1 -1
5 5 5 5 6 7 6 6 6 6 6 6 5 5 5 5 5 5 5 5 5 5 5 5 5 4 4 4 6 5 4 3 3 2 1 0 -1 -1 -2 -2 -2 -2 -2
5 5 5 5 5 5 5 5 5 5 5 5 5 5 5 5 5 5 5 4 4 4 4 4 4 4 4 3 3 3 3 2 1 1 -0 0 -1 -2 -2 -2 -2 -2 -3
4 4 4 4 4 4 4 4 4 4 3 3 3 3 3 3 3 3 3 4 4 3 3 3 3 3 3 3 3 3 3 3 2 0 -1 -2 -2 -2 -3 -2 -2 -3 -3
3 3 3 3 3 3 3 3 3 3 3 3 3 3 2 2 3 3 2 3 2 2 2 2 2 2 2 2 2 2 3 2 -0 -1 -2 -3 -3 -3 -3 -3 -3 -3 -3
Height
1446 1449 1454 1459 1464 1471 1480 1485 1492 1495 1500 1508 1515 1520 1523 1528 1534 1539 1544 1548 1552 1556 1560 1563 1567 1570 1573 1576 1578 1580 1582 1583 1584 1585 1585 1585 1585 1585 1585 1585 1585 1585 1585
1445 1443 1448 1457 1462 1468 1477 1482 1488 1494 1500 1509 1515 1520 1523 1528 1534 1538 1542 1546 1549 1554 1557 1562 1566 1569 1572 1574 1577 1578 1581 1582 1583 1582 1582 1581 1581 1582 1581 1581 1581 1582 1582
1443 1443 1446 1451 1456 1464 1475 1482 1489 1495 1500 1506 1511 1516 1522 1528 1532 1536 1540 1543 1547 1551 1555 1560 1564 1567 1569 1572 1574 1576 1578 1579 1580 1580 1581 1579 1577 1576 1576 1578 1578 1578 1578
1438 1443 1445 1451 1458 1465 1476 1484 1490 1493 1497 1503 1508 1511 1516 1523 1529 1531 1535 1540 1544 1548 1552 1556 1560 1563 1565 1568 1572 1574 1575 1575 1573 1575 1575 1576 1576 1574 1574 1573 1573 1573 1573
1432 1441 1445 1451 1455 1466 1476 1470 1477 1485 1487 1497 1506 1508 1515 1521 1526 1531 1534 1538 1541 1545 1548 1552 1555 1558 1562 1566 1568 1569 1566 1572 1572 1572 1572 1573 1573 1571 1570 1569 1568 1570 1570
1435 1444 1446 1449 1455 1462 1470 1475 1479 1488 1495 1493 1496 1508 1513 1519 1524 1528 1530 1532 1536 1541 1545 1549 1551 1554 1557 1557 1558 1562 1565 1567 1568 1569 1570 1569 1570 1568 1568 1567 1567 1566 1567
1438 1439 1444 1447 1450 1461 1468 1475 1481 1486 1491 1493 1493 1503 1508 1517 1524 1524 1522 1527 1534 1537 1542 1544 1546 1550 1553 1555 1556 1559 1561 1562 1563 1565 1565 1566 1567 1566 1565 1564 1563 1564 1562
1438 1443 1449 1453 1456 1460 1466 1471 1476 1482 1487 1492 1496 1483 1499 1511 1520 1515 1524 1521 1528 1532 1535 1540 1545 1548 1549 1552 1555 1556 1557 1559 1560 1561 1561 1561 1563 1562 1561 1561 1560 1559 1558
1432 1439 1447 1452 1458 1461 1466 1470 1474 1481 1486 1489 1490 1497 1506 1511 1519 1518 1519 1522 1525 1529 1531 1535 1540 1544 1546 1547 1551 1552 1554 1554 1555 1556 1556 1556 1557 1557 1555 1556 1557 1556 1554
1435 1443 1448 1453 1456 1460 1464 1469 1475 1480 1485 1489 1495 1499 1505 1509 1511 1514 1518 1522 1525 1527 1529 1534 1539 1541 1542 1542 1545 1547 1549 1549 1550 1552 1552 1551 1552 1552 1550 1551 1550 1550 1550
1444 1449 1452 1455 1459 1461 1465 1470 1476 1480 1484 1489 1494 1498 1502 1504 1509 1512 1515 1521 1524 1526 1528 1532 1535 1537 1537 1537 1540 1541 1543 1546 1546 1547 1547 1549 1548 1546 1546 1546 1545 1545 1544
1456 1455 1455 1459 1460 1463 1467 1471 1475 1479 1484 1488 1491 1493 1498 1501 1504 1509 1514 1520 1522 1523 1526 1530 1531 1534 1534 1535 1537 1538 1541 1543 1543 1544 1544 1543 1543 1542 1541 1540 1539 1539 1539
1457 1455 1460 1463 1464 1464 1467 1468 1473 1478 1482 1487 1490 1493 1498 1501 1503 1508 1512 1516 1519 1520 1525 1527 1529 1530 1531 1535 1533 1534 1537 1540 1540 1539 1538 1537 1538 1538 1537 1536 1534 1533 1533
1456 1457 1460 1462 1464 1467 1466 1469 1472 1475 1479 1483 1487 1491 1495 1499 1501 1503 1508 1512 1516 1517 1521 1523 1525 1526 1529 1530 1530 1531 1534 1533 1535 1534 1533 1533 1534 1533 1533 1531 1529 1528 1528
1458 1458 1460 1459 1461 1465 1466 1468 1471 1475 1478 1482 1485 1487 1489 1493 1498 1502 1506 1509 1513 1515 1518 1521 1521 1523 1525 1526 1527 1527 1531 1530 1530 1530 1530 1529 1528 1527 1527 1526 1524 1522 1522
1463 1464 1465 1465 1466 1468 1468 1470 1472 1477 1481 1482 1484 1487 1489 1492 1496 1499 1504 1509 1511 1512 1516 1517 1520 1520 1522 1520 1524 1524 1526 1528 1529 1526 1525 1524 1522 1522 1521 1520 1518 1517 1516
1468 1469 1468 1468 1470 1472 1472 1474 1476 1479 1482 1484 1484 1486 1489 1491 1497 1499 1502 1506 1511 1513 1514 1517 1516 1515 1517 1518 1522 1523 1524 1526 1525 1520 1518 1517 1517 1516 1515 1513 1511 1511 1511
1468 1469 1468 1472 1473 1476 1476 1476 1477 1479 1483 1484 1485 1486 1487 1490 1496 1499 1502 1502 1505 1509 1513 1513 1508 1514 1519 1518 1520 1519 1520 1519 1517 1512 1511 1511 1510 1511 1509 1508 1507 1507 1506
1470 1468 1468 1470 1471 1472 1474 1475 1477 1479 1482 1484 1486 1487 1487 1489 1493 1496 1498 1499 1501 1505 1511 1513 1514 1513 1515 1515 1514 1515 1513 1512 1511 1507 1505 1505 1505 1505 1504 1503 1503 1503 1502
1472 1472 1472 1472 1471 1472 1473 1473 1475 1476 1478 1480 1481 1481 1483 1486 1490 1493 1495 1497 1500 1504 1510 1512 1512 1510 1510 1511 1509 1508 1511 1506 1505 1504 1501 1501 1500 1501 1500 1500 1499 1499 1498
1473 1472 1472 1472 1472 1475 1475 1475 1477 1478 1479 1481 1482 1483 1486 1487 1489 1491 1493 1494 1497 1503 1507 1509 1508 1507 1507 1505 1505 1504 1504 1503 1502 1500 1498 1498 1498 1498 1497 1496 1496 1495 1494
1475 1472 1471 1470 1471 1473 1475 1477 1478 1479 1479 1482 1480 1482 1484 1488 1489 1489 1492 1493 1497 1499 1502 1502 1504 1504 1501 1500 1501 1498 1499 1500 1498 1496 1496 1495 1495 1494 1492 1492 1492 1492 1491
1478 1478 1476 1475 1475 1474 1476 1477 1477 1478 1480 1480 1481 1482 1483 1484 1487 1488 1490 1490 1492 1495 1498 1498 1498 1498 1497 1496 1495 1495 1495 1494 1492 1493 1492 1492 1491 1489 1488 1488 1487 1488 1488
1479 1478 1477 1475 1474 1475 1476 1476 1476 1478 1478 1479 1480 1480 1480 1483 1483 1484 1485 1487 1490 1493 1491 1492 1495 1495 1493 1492 1491 1490 1490 1490 1489 1488 1486 1486 1485 1486 1486 1485 1484 1484 1484
1481 1479 1478 1477 1477 1477 1477 1476 1476 1477 1477 1478 1477 1477 1478 1480 1480 1482 1483 1484 1485 1486 1487 1489 1490 1489 1488 1488 1487 1486 1487 1486 1484 1483 1482 1481 1481 1482 1481 1481 1480 1480 1480
1483 1482 1482 1481 1480 1479 1478 1478 1477 1477 1478 1476 1476 1476 1476 1476 1476 1476 1478 1479 1480 1482 1483 1483 1484 1484 1483 1483 1482 1482 1482 1480 1479 1477 1477 1477 1477 1477 1477 1476 1476 1477 1476
Wind_Speed
23 38 39 37 48 51 42 41 42 44 42 39 36 34 32 30 26 26 25 26 24 22 20 17 18 17 14 11 10 9 8 7 6 7 7 7 10 12 13 14 14 14 14
13 33 40 41 40 46 40 40 38 40 41 38 36 34 31 30 26 25 25 23 21 19 17 16 15 14 13 12 11 10 9 7 5 6 8 5 6 9 11 12 13 16 16
12 23 34 38 33 29 33 35 34 34 37 38 38 36 31 29 30 28 24 23 22 21 18 15 15 14 14 12 12 12 10 8 6 10 11 6 6 9 9 13 15 16 13
16 19 35 37 36 40 26 33 35 34 35 39 40 38 36 34 33 30 27 24 22 19 17 17 16 15 12 12 13 14 11 10 15 18 16 19 20 14 10 17 17 15 9
18 15 25 31 32 38 37 33 23 27 44 24 40 38 32 31 30 27 20 22 17 14 16 17 16 16 15 7 7 11 17 17 14 13 12 15 18 19 20 9 9 12 14
18 16 16 22 27 29 29 23 22 21 38 52 35 34 28 27 27 28 23 18 21 21 21 22 20 15 16 13 13 15 14 14 19 18 15 8 10 11 10 12 13 16 18
14 15 12 12 21 31 27 26 26 29 31 20 46 32 37 36 36 32 27 31 26 25 19 17 18 15 13 9 7 9 9 7 8 9 6 10 11 13 13 13 18 21 21
13 14 13 14 16 20 23 23 24 18 19 24 26 13 33 18 28 25 24 26 23 22 19 19 16 13 11 8 7 5 5 6 7 9 12 12 13 13 15 17 19 20 21
11 14 13 9 14 19 19 16 15 17 16 14 13 15 23 24 24 20 18 15 15 17 19 18 15 10 9 8 6 5 6 7 9 11 11 15 15 16 16 18 18 18 20
9 10 14 7 4 13 18 17 16 16 17 15 17 18 19 19 18 18 19 19 20 18 18 17 12 12 10 6 5 6 7 8 10 13 14 14 14 14 15 15 17 18 17
11 7 11 6 3 10 17 17 17 17 16 17 16 16 15 15 16 16 16 17 16 14 17 12 10 8 6 4 4 4 5 7 8 10 12 13 14 14 14 15 15 16 16
9 7 7 5 1 5 14 15 15 15 15 14 12 11 11 12 12 15 16 16 13 14 13 8 8 8 5 5 5 5 7 9 10 10 11 13 13 13 14 15 15 16 13
8 7 12 9 9 5 9 15 16 14 15 14 12 12 12 13 15 15 15 14 14 13 10 10 11 9 7 8 6 7 8 9 9 9 10 12 14 15 16 17 17 16 13
19 15 5 12 15 13 11 14 15 15 13 13 14 12 12 14 13 12 13 12 13 12 11 12 11 8 7 7 6 6 8 7 9 10 11 13 15 17 18 19 18 17 16
22 19 16 8 4 7 11 13 14 14 14 14 14 13 12 11 11 11 12 12 12 12 11 11 9 8 8 7 6 6 8 8 10 12 14 16 17 19 20 20 19 19 18
19 17 15 13 7 4 6 9 11 12 12 13 13 13 12 12 12 13 13 13 13 13 12 11 10 9 7 5 6 7 9 11 13 14 15 17 18 18 18 18 20 20 18
15 14 13 10 8 5 7 8 11 12 13 13 13 12 12 13 13 13 14 15 14 13 12 12 10 7 6 6 8 8 11 13 15 15 16 17 17 17 16 17 21 16 17
11 11 9 6 2 1 4 7 9 11 12 13 13 13 13 12 13 14 14 13 13 12 11 9 7 7 8 7 8 9 12 14 16 16 16 15 16 17 17 14 11 15 16
12 10 9 8 4 1 2 5 7 9 11 12 13 13 13 14 15 15 14 13 12 11 11 10 9 7 6 7 8 12 15 17 16 14 14 15 15 15 16 12 10 11 14
10 10 6 5 3 2 2 2 3 6 7 8 9 10 11 12 12 13 13 13 12 11 11 9 7 6 5 7 10 14 17 16 15 14 12 13 14 12 11 13 10 10 11
10 10 5 2 6 5 3 3 3 4 6 7 8 9 11 12 13 13 12 12 12 12 12 10 7 6 5 7 11 13 14 14 15 14 14 14 13 12 10 13 12 11 11
9 10 8 3 4 5 5 4 4 4 5 7 7 8 9 11 12 11 12 13 13 13 12 10 10 10 8 8 11 13 15 16 16 16 14 15 15 13 11 12 12 13 11
9 8 8 6 3 5 6 5 5 5 5 6 8 9 11 11 12 12 13 13 13 14 15 14 13 13 13 11 11 15 16 17 17 16 15 16 17 12 11 11 9 11 10
6 7 7 5 5 3 2 4 6 7 7 7 8 9 10 11 12 13 14 15 16 16 15 14 15 13 12 12 12 13 12 15 17 17 17 17 16 13 11 10 11 11 11
4 5 5 5 4 4 1 1 2 4 6 8 9 10 11 12 13 14 14 15 15 15 15 16 15 12 11 12 12 12 12 14 15 17 16 16 16 15 13 12 12 12 12
4 4 4 4 3 3 3 3 3 3 5 6 7 8 10 11 12 16 15 15 16 16 17 16 15 14 12 14 17 16 17 17 13 16 17 16 16 14 13 13 12 12 12
Wind_Direction
226 207 202 206 192 191 193 195 196 201 200 199 197 196 193 192 194 199 198 194 195 194 199 203 206 211 215 220 223 230 237 253 268 289 305 306 290 275 263 262 262 258 259
220 205 202 198 206 206 202 198 201 207 205 200 200 201 194 196 196 191 192 195 196 200 203 205 209 218 225 229 233 236 243 251 267 280 287 282 293 291 273 262 259 257 257
192 191 197 204 208 201 202 215 209 206 209 202 204 204 203 202 198 197 195 196 194 197 201 204 211 215 219 220 228 230 233 240 245 274 267 264 257 270 241 270 279 279 257
157 176 182 186 201 211 224 217 204 205 215 213 211 206 202 203 201 198 200 203 209 205 201 205 212 217 218 220 229 226 223 220 250 291 283 268 265 277 281 277 268 252 236
132 155 176 184 187 190 206 213 207 217 226 215 222 214 207 207 205 204 203 211 210 234 216 245 226 226 228 334 298 231 238 252 265 270 274 273 287 280 266 268 292 294 287
127 130 152 178 194 203 210 201 195 190 204 227 207 223 212 199 210 206 195 216 228 243 226 239 232 256 234 278 248 241 240 263 266 257 272 265 286 283 280 282 302 312 303
116 101 122 179 207 214 206 196 197 191 199 211 231 245 215 232 227 216 216 232 234 238 225 242 240 238 234 229 204 219 229 243 250 253 233 290 285 288 280 278 290 301 295
95 94 95 139 168 174 192 196 194 184 182 208 228 183 204 250 232 220 218 215 218 226 216 221 217 198 179 180 193 213 222 225 235 248 279 278 286 279 270 274 280 287 286
47 59 57 83 166 169 169 165 161 173 181 178 155 179 174 191 194 194 204 206 195 185 169 165 167 177 180 179 190 211 229 241 252 260 266 280 285 280 277 276 272 273 280
27 6 22 22 111 176 174 169 166 165 169 174 178 180 183 187 184 181 179 174 168 166 164 164 173 177 178 185 216 237 253 263 270 277 282 285 283 283 284 281 280 273 268
348 333 4 337 34 150 169 176 167 163 165 171 177 177 175 171 172 169 162 169 169 169 169 174 181 186 193 212 248 270 279 272 274 279 283 281 286 288 289 286 288 284 272
264 288 323 297 242 140 164 180 177 170 168 173 172 170 176 174 173 170 171 178 184 178 182 200 195 200 217 219 229 247 270 279 279 283 290 298 300 301 299 297 295 288 272
107 151 214 248 256 197 180 178 182 180 182 184 179 178 184 186 179 184 184 191 190 187 214 225 217 212 207 224 239 258 261 264 272 281 290 299 302 303 302 300 297 293 279
66 63 109 186 203 210 194 189 187 193 201 193 186 185 189 192 193 187 190 195 203 217 227 212 206 207 221 244 255 268 265 276 282 290 293 297 299 301 301 300 297 289 277
48 50 45 63 152 195 190 190 191 198 197 194 190 188 184 185 189 196 207 215 221 217 208 207 214 226 234 239 247 255 266 278 286 290 293 295 295 296 295 296 294 286 277
39 41 46 49 66 138 177 192 191 194 191 187 186 188 190 193 200 205 209 213 210 202 208 216 217 214 224 228 250 274 283 287 283 285 291 293 293 289 293 298 293 282 274
26 33 35 42 57 98 150 171 179 187 190 191 187 185 186 188 195 197 196 197 202 210 214 209 204 215 239 248 262 275 282 284 289 295 298 298 293 288 293 307 322 281 265
3 8 23 29 56 121 138 152 167 178 190 192 196 197 197 198 202 201 203 206 208 205 208 213 216 227 241 257 274 289 294 300 303 305 304 299 294 289 292 298 307 298 283
352 343 341 346 333 286 217 211 203 198 202 205 204 202 202 206 210 210 207 203 200 203 209 213 216 228 257 285 306 313 315 310 305 304 304 303 300 295 299 293 288 288 285
350 347 321 312 268 253 257 243 218 215 216 212 204 197 195 193 193 194 194 194 195 202 211 217 226 241 274 302 322 325 312 309 309 312 312 312 310 303 299 295 284 282 284
4 360 2 199 183 190 183 192 193 176 185 192 190 188 189 192 195 199 198 198 205 212 219 225 234 256 274 310 326 327 323 324 324 325 322 318 311 296 289 289 288 280 277
22 24 28 49 156 169 177 178 182 196 201 206 201 207 211 211 210 207 211 211 215 222 230 239 246 251 270 299 309 322 321 314 325 328 317 315 309 297 287 278 282 279 282
27 31 47 58 115 175 195 194 195 203 215 217 214 211 213 218 222 220 225 227 232 238 240 241 248 265 269 269 289 303 303 302 305 301 303 301 302 299 285 276 269 272 279
23 31 29 45 70 87 169 211 224 228 229 232 235 231 234 237 239 239 239 237 240 245 250 255 265 273 282 288 287 287 297 311 304 294 290 290 293 291 280 273 274 275 279
22 26 17 16 29 59 55 262 258 256 250 248 244 243 241 240 242 242 243 249 253 253 252 253 259 264 274 283 292 291 291 299 301 290 284 289 287 280 273 272 271 273 280
348 359 359 357 350 346 347 326 301 282 272 267 265 258 247 249 248 251 248 246 247 248 253 259 268 268 269 281 285 281 291 296 295 286 290 283 280 273 267 270 272 273 280